Wetbulb
49.57 49.84 48.94 48.85 48.94 48.49 47.80 46.45 43.82 39.87 41.30 45.11 45.88 49.54 50.25 51.05 52.04 51.33 50.45 53.07 53.08 54.44 54.13 53.22 53.43 53.98 54.75 55.50 56.05 56.16 57.35 57.88 58.52 62.41 62.14 66.78 67.51 67.16
49.59 48.76 48.41 48.35 48.38 48.71 48.15 47.11 46.29 44.11 41.26 45.89 47.25 48.89 49.81 49.83 51.16 50.81 50.30 53.27 53.59 53.33 54.11 53.83 53.04 53.71 54.14 54.62 54.96 55.12 55.89 56.92 57.09 60.43 61.43 61.16 62.36 66.63
49.39 48.40 47.57 48.16 47.76 47.62 47.74 47.24 46.72 46.59 43.63 46.29 48.03 48.98 48.16 48.07 48.91 50.03 50.88 50.23 50.38 52.61 52.68 54.04 53.95 53.39 53.55 53.74 54.07 54.82 55.00 55.88 56.15 56.63 57.35 60.11 63.59 65.70
47.93 47.70 46.75 46.74 47.28 47.51 47.17 46.96 47.12 47.54 45.84 43.60 46.34 46.84 47.09 48.04 48.74 48.41 47.97 49.42 50.15 51.14 52.10 52.87 53.64 53.88 53.41 53.72 53.71 54.19 54.61 55.46 55.23 55.78 57.39 59.95 65.01 64.46
47.51 46.89 46.74 46.58 45.39 46.41 47.24 46.99 47.59 47.10 46.76 45.35 44.45 46.69 47.04 48.00 47.28 47.78 47.50 48.60 49.96 51.45 51.98 52.56 52.80 53.80 54.04 53.94 53.96 53.86 54.22 54.97 56.97 55.69 56.92 59.56 63.70 63.51
46.76 47.27 46.24 45.68 45.69 46.58 46.63 46.77 46.18 46.12 45.82 44.70 44.41 44.00 45.63 46.73 46.99 45.82 46.28 48.50 47.31 48.55 50.86 51.68 52.80 53.33 53.36 54.31 54.02 53.73 53.11 54.81 55.30 56.40 55.19 56.23 61.97 61.70
46.92 46.32 47.00 47.49 48.52 48.26 46.78 45.93 46.04 44.61 44.40 43.13 43.28 43.44 43.65 44.23 44.22 45.57 44.86 45.14 45.90 48.02 47.89 48.71 50.35 51.44 52.30 53.69 53.30 53.34 53.24 53.69 53.69 56.51 56.23 57.12 59.33 59.54
46.16 46.03 46.51 48.58 48.24 48.92 48.39 48.22 47.10 44.86 43.50 42.20 41.67 41.47 42.88 44.54 44.51 43.94 43.78 43.22 42.07 48.19 47.57 47.45 51.60 50.45 51.78 52.70 53.35 53.60 53.80 51.69 52.55 55.57 56.26 58.21 57.67 58.24
45.97 46.81 46.56 46.75 47.20 45.90 46.99 47.81 47.59 48.10 48.24 45.86 43.51 43.67 44.26 45.77 45.14 44.43 44.62 44.44 44.24 47.42 47.39 45.70 50.64 50.08 52.53 53.00 53.99 53.81 53.89 53.94 54.79 55.19 56.82 57.10 57.24 57.72
47.22 47.25 46.77 46.21 46.42 45.81 45.08 44.77 45.70 46.77 47.36 47.37 46.86 46.98 47.65 47.62 47.92 47.73 47.08 46.49 47.20 48.36 49.42 45.29 50.55 49.99 52.74 53.11 53.93 54.16 54.08 55.00 55.06 56.65 56.48 56.18 55.91 55.95
47.03 46.87 46.77 45.83 46.75 46.37 44.93 44.73 45.34 46.05 48.81 50.60 49.36 50.51 50.91 50.66 49.94 47.68 45.52 45.14 47.02 48.51 51.17 49.63 50.67 50.49 51.86 52.55 54.62 54.90 55.66 55.81 55.88 56.16 55.96 55.03 54.43 54.85
46.18 46.30 48.07 46.02 46.33 46.12 44.82 44.78 43.96 43.92 45.04 45.55 46.72 47.79 48.01 47.83 49.26 47.47 47.22 48.57 48.83 48.28 51.76 49.84 50.58 50.75 49.57 53.90 55.67 56.65 55.85 55.02 54.57 54.45 54.33 53.90 53.51 53.35
44.54 44.87 46.30 47.28 46.13 46.02 46.94 45.80 44.58 45.32 45.43 45.69 45.73 45.43 45.90 46.01 46.38 47.86 49.66 52.40 49.31 48.69 54.36 52.96 51.24 52.09 53.53 53.34 54.83 55.79 55.30 54.43 53.93 53.27 52.93 52.57 52.14 53.28
44.21 45.49 47.04 46.13 45.54 46.68 47.25 46.86 46.29 45.94 45.80 44.57 44.03 43.64 43.89 44.38 45.63 47.81 50.92 53.88 55.84 53.56 56.24 54.98 54.83 54.10 52.68 51.52 50.58 53.14 53.16 53.22 52.94 52.19 52.19 52.56 52.13 52.89
45.28 46.45 45.73 45.86 46.32 46.43 47.05 46.13 45.90 45.39 44.39 43.18 42.99 42.77 44.11 45.26 46.82 48.91 52.07 55.53 56.97 58.07 58.16 57.26 54.95 54.85 54.30 52.02 50.59 50.50 50.02 50.85 52.08 51.23 51.28 51.28 52.00 52.62
45.50 45.16 45.37 45.52 45.84 45.77 45.77 45.56 45.20 45.18 44.30 43.15 43.24 43.42 44.97 45.25 45.85 48.27 49.88 55.68 55.08 55.02 56.39 56.71 56.18 54.54 52.67 52.23 51.07 49.23 49.46 47.54 50.49 50.87 51.76 52.06 52.32 52.43
45.09 45.07 44.30 44.31 43.36 43.92 44.29 44.38 44.89 44.84 43.95 44.47 43.65 42.81 43.62 44.51 45.09 47.63 49.67 54.53 54.16 52.63 51.95 53.29 55.24 55.09 53.84 52.04 48.87 48.58 48.28 48.74 50.64 50.52 50.28 49.04 49.86 50.64
43.25 42.20 41.82 42.37 41.48 42.39 42.25 42.61 43.56 43.65 43.42 43.77 44.17 42.79 42.95 43.57 44.35 46.26 48.70 53.17 53.84 52.15 51.14 51.86 52.32 51.28 50.52 50.59 50.95 48.37 48.52 49.24 50.18 50.37 50.08 47.95 48.00 50.57
41.39 41.43 41.69 41.92 42.12 42.16 42.20 42.12 41.79 43.33 42.88 43.56 43.62 42.45 43.10 43.58 44.05 44.95 46.77 52.67 51.89 52.89 51.81 52.57 52.17 50.60 47.90 45.95 50.58 49.04 48.64 49.14 49.38 49.60 49.79 48.40 47.51 48.57
41.73 41.84 41.47 41.65 42.04 41.68 41.80 42.00 42.10 42.69 41.51 43.52 43.84 42.36 42.73 43.07 43.21 43.84 45.30 46.97 51.09 52.49 52.38 52.89 53.03 53.22 50.71 48.37 48.83 49.06 47.62 50.23 49.77 49.14 48.29 47.43 48.50 49.06
41.77 41.35 41.69 41.65 42.02 42.31 42.38 43.12 43.05 42.73 43.71 43.69 43.82 42.32 42.39 42.82 42.65 43.46 44.18 45.54 50.75 51.62 52.06 53.09 54.86 55.12 54.83 53.39 49.78 48.26 49.27 46.28 51.04 50.12 48.61 47.56 46.41 46.84
41.27 40.64 41.79 42.55 42.53 42.98 43.27 43.79 44.13 42.75 43.47 43.93 43.97 42.82 42.52 42.89 42.44 42.72 43.44 44.23 48.52 51.84 50.83 51.65 54.15 54.98 52.98 51.27 49.30 48.66 47.77 45.68 44.94 44.64 44.84 46.29 47.77 44.79
41.14 41.16 41.91 41.76 42.98 43.12 43.35 43.52 43.39 43.45 43.69 43.77 43.90 43.18 42.54 41.84 42.53 42.94 43.25 43.98 45.14 51.90 50.88 50.06 52.28 53.71 53.24 51.78 49.70 48.19 46.97 46.06 46.79 46.19 45.00 44.61 45.38 46.04
MSLP
1015.78 1016.18 1016.44 1016.49 1016.70 1016.85 1016.95 1017.00 1016.82 1016.21 1015.87 1015.65 1015.35 1015.27 1015.02 1014.86 1014.72 1014.58 1014.44 1014.22 1014.22 1014.15 1014.14 1014.16 1014.11 1014.23 1014.15 1014.04 1013.93 1013.72 1013.50 1013.59 1013.68 1013.16 1014.05 1014.03 1014.07 1014.71
1015.30 1015.61 1015.91 1016.07 1016.21 1016.45 1016.60 1016.68 1016.61 1016.31 1015.57 1015.66 1015.24 1014.95 1014.56 1014.29 1014.14 1013.91 1013.70 1013.42 1013.26 1013.15 1013.02 1013.18 1013.24 1013.32 1013.18 1013.08 1013.11 1013.00 1012.77 1012.86 1013.41 1013.62 1013.18 1014.45 1015.07 1014.25
1014.87 1015.30 1015.48 1015.69 1015.88 1016.11 1016.21 1016.21 1016.05 1015.93 1015.36 1014.98 1014.88 1014.56 1014.17 1013.88 1013.60 1013.32 1013.00 1012.64 1012.31 1012.15 1012.14 1012.10 1012.06 1012.22 1012.37 1012.31 1012.23 1012.19 1012.11 1012.15 1013.27 1013.13 1013.18 1014.31 1014.28 1013.98
1014.32 1014.80 1015.04 1015.24 1015.43 1015.60 1015.78 1015.71 1015.52 1015.38 1015.08 1014.42 1014.38 1014.10 1013.80 1013.62 1013.14 1012.78 1012.45 1011.92 1011.48 1011.64 1011.47 1011.09 1010.99 1011.08 1011.35 1011.24 1011.20 1011.38 1011.53 1011.76 1012.26 1012.86 1013.40 1014.37 1013.55 1013.74
1013.68 1014.05 1014.34 1014.67 1014.87 1014.93 1015.09 1015.08 1014.94 1014.87 1014.77 1014.32 1013.74 1013.57 1013.29 1012.92 1012.39 1012.00 1011.69 1011.08 1010.77 1010.69 1010.47 1010.08 1009.79 1009.72 1009.83 1009.90 1010.08 1010.63 1011.01 1011.20 1011.52 1011.81 1012.68 1013.31 1013.11 1013.41
1013.06 1013.45 1013.85 1014.16 1014.40 1014.54 1014.70 1014.69 1014.59 1014.49 1014.34 1013.99 1013.54 1013.39 1012.88 1012.49 1012.05 1011.37 1010.63 1010.32 1010.17 1009.94 1009.38 1008.87 1008.14 1007.89 1008.00 1008.37 1008.89 1009.62 1010.33 1010.46 1010.88 1011.12 1012.23 1013.18 1012.86 1013.23
1012.73 1013.03 1013.40 1013.75 1014.04 1014.36 1014.64 1014.66 1014.58 1014.41 1014.16 1013.89 1013.10 1012.63 1012.15 1011.70 1011.17 1010.81 1010.33 1009.78 1009.23 1008.93 1008.13 1007.44 1006.97 1006.45 1006.46 1006.99 1007.57 1008.60 1009.62 1009.38 1010.65 1010.91 1011.69 1013.15 1012.05 1013.27
1012.10 1012.48 1012.76 1013.21 1013.60 1013.93 1014.10 1014.22 1014.27 1014.11 1013.86 1013.38 1012.79 1012.20 1011.45 1010.88 1010.39 1010.08 1009.50 1008.82 1007.48 1007.49 1006.91 1006.18 1005.62 1005.34 1005.51 1005.95 1006.66 1007.40 1008.30 1008.80 1009.78 1010.78 1011.62 1011.84 1012.05 1013.40
1011.66 1012.01 1012.36 1012.64 1013.07 1013.32 1013.43 1013.49 1013.40 1013.20 1012.93 1012.44 1011.78 1011.17 1010.32 1010.03 1009.71 1008.75 1008.07 1007.33 1006.28 1005.36 1005.61 1005.03 1004.68 1004.18 1004.56 1005.18 1005.63 1006.35 1007.53 1008.52 1009.22 1010.36 1011.58 1011.26 1012.18 1013.72
1011.20 1011.70 1012.08 1012.49 1012.75 1012.98 1013.15 1013.08 1012.85 1012.41 1011.88 1011.44 1010.88 1010.20 1009.78 1009.24 1008.59 1007.67 1006.62 1005.65 1004.59 1003.77 1003.83 1003.54 1003.23 1003.05 1003.68 1003.93 1004.39 1005.10 1006.34 1006.84 1008.12 1009.72 1010.57 1011.23 1012.56 1014.14
1010.96 1011.46 1011.82 1012.20 1012.47 1012.68 1012.88 1012.68 1012.12 1011.54 1011.08 1010.60 1010.37 1009.67 1008.87 1008.17 1007.40 1006.72 1005.19 1004.20 1002.87 1002.22 1001.99 1002.36 1001.99 1002.79 1003.24 1003.64 1003.95 1004.43 1005.39 1006.70 1008.31 1008.99 1010.19 1011.59 1013.22 1014.57
1010.65 1011.11 1011.55 1011.87 1012.31 1012.46 1012.70 1012.28 1011.62 1011.34 1011.04 1010.60 1009.75 1009.00 1008.45 1007.32 1006.41 1005.57 1004.35 1002.81 1001.87 1001.51 1001.13 1001.50 1001.56 1002.24 1002.05 1002.16 1002.17 1003.54 1005.59 1007.12 1007.94 1009.32 1010.73 1012.38 1013.83 1014.79
1010.18 1010.59 1010.88 1011.28 1011.88 1012.18 1012.31 1011.98 1011.66 1011.44 1011.00 1010.15 1009.65 1008.71 1007.84 1006.92 1005.67 1004.63 1003.34 1002.02 1001.16 1000.74 1000.79 1000.95 1001.16 1001.30 1001.11 1002.33 1003.57 1004.79 1005.67 1007.18 1008.88 1010.65 1012.07 1013.32 1014.20 1014.64
1009.94 1010.37 1010.69 1011.20 1011.64 1011.86 1011.78 1011.57 1011.48 1011.27 1010.51 1010.02 1009.62 1008.64 1007.78 1006.74 1005.31 1004.04 1002.70 1001.39 1000.66 1000.06 999.90 1000.28 1000.62 1000.71 1001.29 1002.79 1003.67 1005.64 1006.97 1008.57 1009.92 1011.70 1012.87 1013.90 1014.47 1014.68
1009.98 1010.38 1010.86 1011.17 1011.40 1011.49 1011.31 1011.17 1011.13 1010.61 1010.30 1009.99 1009.52 1008.83 1007.91 1006.94 1005.64 1003.94 1002.48 1001.19 1000.16 999.14 999.24 1000.49 1001.23 1001.70 1002.67 1003.79 1004.47 1006.09 1007.57 1009.92 1010.84 1011.84 1013.11 1014.04 1014.13 1014.48
1010.10 1010.46 1010.64 1010.96 1011.17 1011.16 1011.05 1010.69 1010.65 1010.48 1010.26 1010.04 1009.62 1008.99 1007.94 1006.62 1005.36 1004.31 1003.02 1001.36 1000.49 1000.73 1000.69 1000.98 1001.92 1002.82 1003.85 1004.92 1005.90 1006.88 1008.42 1009.60 1011.26 1012.27 1013.18 1013.75 1014.05 1014.46
1009.65 1009.94 1010.26 1010.62 1010.77 1010.50 1010.49 1010.47 1010.40 1010.23 1010.03 1009.86 1009.72 1009.15 1008.18 1007.04 1005.71 1004.60 1003.41 1002.04 1001.66 1001.99 1002.18 1002.71 1003.48 1004.25 1004.72 1005.64 1006.56 1007.71 1008.90 1010.13 1011.24 1012.38 1013.28 1013.88 1014.37 1014.64
1009.75 1009.98 1010.20 1010.48 1010.51 1010.45 1010.54 1010.42 1010.28 1010.13 1010.08 1009.84 1009.69 1009.56 1008.75 1007.86 1006.67 1005.20 1004.32 1003.21 1002.85 1003.23 1003.31 1004.24 1004.52 1005.29 1006.42 1007.17 1007.89 1008.16 1009.28 1010.27 1011.40 1012.45 1013.26 1013.73 1014.27 1014.47
1009.62 1009.68 1010.01 1010.27 1010.25 1010.48 1010.62 1010.51 1010.29 1010.17 1010.16 1009.93 1009.69 1009.44 1008.75 1007.90 1006.98 1006.00 1005.25 1004.00 1003.98 1004.29 1004.32 1004.76 1005.00 1005.89 1006.83 1007.60 1009.12 1009.02 1009.35 1010.46 1011.27 1012.27 1013.10 1013.78 1014.19 1014.68
1009.37 1009.41 1009.90 1010.14 1010.15 1010.36 1010.65 1010.56 1010.44 1010.36 1010.25 1009.92 1009.72 1009.50 1008.93 1008.41 1007.34 1006.38 1005.70 1005.20 1004.42 1004.52 1004.90 1004.97 1005.52 1005.94 1006.16 1007.55 1008.52 1009.82 1009.94 1010.45 1011.12 1011.96 1013.25 1014.25 1014.71 1015.14
1009.05 1009.40 1009.88 1010.02 1010.09 1010.23 1010.44 1010.57 1010.46 1010.32 1010.17 1009.82 1009.71 1009.81 1009.45 1008.76 1008.06 1007.53 1006.87 1006.02 1004.95 1005.06 1005.45 1005.79 1006.01 1006.03 1006.52 1007.43 1008.53 1009.87 1010.94 1011.30 1011.61 1012.19 1013.37 1014.24 1014.98 1015.61
1008.84 1009.38 1009.69 1009.88 1010.06 1010.14 1010.21 1010.29 1010.22 1010.04 1010.03 1009.85 1009.63 1009.79 1009.61 1009.31 1008.68 1008.12 1007.63 1006.98 1006.09 1005.50 1005.65 1005.90 1006.09 1006.70 1007.13 1007.48 1008.50 1009.65 1011.13 1012.52 1012.50 1013.21 1013.94 1013.97 1014.43 1015.10
1008.96 1009.13 1009.42 1009.80 1010.15 1010.07 1009.97 1010.04 1009.97 1009.84 1009.79 1009.90 1009.73 1009.79 1009.93 1009.56 1009.24 1008.59 1008.08 1007.49 1006.85 1005.76 1005.93 1006.21 1006.72 1007.24 1007.23 1007.80 1008.75 1009.93 1011.13 1012.16 1012.87 1013.60 1014.82 1014.79 1014.47 1014.49
Wind_Speed
9 8 7 5 5 5 6 6 7 10 8 9 9 10 9 8 11 12 13 17 22 21 21 23 25 23 23 23 22 23 22 21 21 20 13 17 21 22
7 9 8 6 6 5 5 6 7 9 11 8 8 11 11 10 12 13 13 19 20 23 20 21 25 23 26 24 23 23 23 23 18 19 15 21 28 21
9 8 8 8 5 6 6 6 7 8 11 8 9 11 14 13 12 12 12 12 11 21 24 25 23 25 24 24 24 23 23 24 15 19 21 22 29 22
10 9 9 7 8 7 6 9 8 9 9 14 10 9 11 14 13 15 12 13 9 17 28 28 26 25 24 25 24 24 24 22 16 17 23 29 20 22
11 10 9 9 9 7 7 8 7 7 9 10 11 8 10 11 12 12 14 14 10 20 27 29 30 29 27 26 24 23 20 20 17 20 26 23 22 23
10 9 9 9 9 8 8 9 9 9 9 10 10 11 10 11 11 12 11 9 10 12 18 25 26 26 26 26 25 23 20 20 14 19 18 16 23 23
10 9 8 10 12 10 7 9 10 9 8 10 11 11 11 11 12 9 11 12 13 12 13 13 12 9 12 22 19 24 21 20 20 18 17 22 24 23
9 9 8 9 11 14 15 16 14 10 12 11 12 13 16 14 12 12 13 14 16 11 10 11 10 10 9 9 19 23 23 23 23 18 13 24 25 22
9 7 7 7 4 8 11 15 15 18 19 15 16 15 16 14 15 18 17 15 15 12 11 13 11 11 8 10 20 25 27 28 27 23 24 27 26 21
8 7 7 7 7 7 8 11 12 12 12 11 14 14 14 16 17 16 16 18 16 13 11 9 10 8 7 8 21 20 25 28 26 32 29 27 24 22
7 7 7 7 8 8 8 11 12 11 14 17 23 27 28 30 27 14 14 12 8 5 8 8 5 6 5 5 12 25 25 32 33 32 30 27 24 22
7 7 9 9 9 8 9 11 11 12 13 15 14 15 20 19 28 14 12 11 5 3 6 5 5 4 1 1 8 18 18 32 31 30 29 27 25 12
6 5 4 8 8 8 12 10 11 14 16 12 10 12 13 13 12 12 12 10 4 5 2 4 5 7 3 9 8 14 16 18 16 18 25 25 17 13
4 3 3 6 2 8 11 14 16 17 8 9 9 11 12 13 14 14 16 13 9 10 6 5 4 4 8 10 10 13 14 14 14 13 13 16 5 14
4 2 5 5 8 9 13 13 15 7 6 8 8 11 11 12 15 14 14 14 7 4 9 8 10 6 12 7 10 14 15 10 12 13 11 7 7 8
6 5 6 5 8 9 9 8 5 6 6 8 8 10 11 12 11 10 11 6 3 9 13 14 14 13 12 12 13 14 14 10 11 11 9 7 6 5
4 2 3 2 5 4 4 5 5 6 5 7 7 10 11 11 11 11 10 5 4 9 11 11 10 13 13 15 14 12 12 12 11 11 9 8 6 6
3 3 2 3 3 4 4 5 5 7 6 7 6 8 10 10 11 11 11 4 5 8 11 11 12 13 11 10 8 12 12 12 11 11 8 8 6 4
3 2 2 3 3 3 4 5 6 5 7 6 5 8 10 9 13 10 10 3 5 8 10 11 10 13 14 10 4 6 13 11 11 9 7 4 6 4
3 3 3 3 3 3 3 4 5 6 5 5 5 7 9 9 10 10 9 9 2 6 8 10 9 8 12 12 9 3 10 10 9 10 6 4 7 14
4 3 3 3 3 3 3 3 5 5 5 5 4 5 7 8 9 8 9 17 1 3 7 8 6 11 5 11 10 9 6 7 8 8 8 7 5 3
3 4 3 2 3 3 3 3 4 4 4 4 4 4 6 7 8 9 8 8 7 2 4 5 7 8 7 9 13 14 7 5 17 22 16 6 4 6
4 4 3 3 2 4 3 4 4 4 4 4 4 3 5 6 7 7 7 8 7 2 6 5 4 3 8 8 12 11 13 11 8 7 4 12 9 8
Wind_Direction
207 216 229 236 242 251 261 268 277 288 285 295 298 295 294 296 292 290 287 284 284 283 282 283 282 278 276 270 269 266 264 260 275 239 253 240 204 190
210 214 218 230 240 249 256 262 264 273 282 286 285 289 291 289 289 287 289 286 283 281 278 280 275 275 276 270 265 258 260 258 274 239 252 287 299 178
207 221 229 239 251 261 263 262 266 272 279 277 283 290 290 291 286 287 285 282 281 282 285 280 272 276 269 265 261 253 258 258 258 244 251 266 278 168
208 218 228 238 246 251 255 260 262 270 280 290 285 289 299 294 295 286 281 271 275 283 284 281 277 273 265 256 251 250 245 257 246 235 224 235 209 166
208 219 227 242 252 254 260 270 276 283 281 283 289 286 287 287 286 290 285 273 273 283 284 277 273 268 257 248 241 241 235 242 247 220 225 228 201 161
214 217 235 244 255 262 268 275 282 286 294 285 298 290 282 292 276 278 277 275 277 279 265 279 275 259 249 237 230 225 219 223 230 225 220 250 189 156
212 227 228 242 258 272 282 283 291 294 297 286 288 300 292 292 284 291 288 283 276 268 270 270 271 247 239 234 218 214 202 208 213 221 202 239 154 151
215 230 243 241 240 248 258 271 275 282 285 283 289 287 284 286 285 283 277 277 280 257 254 269 254 234 221 204 204 199 196 194 207 221 229 177 142 147
218 226 238 252 220 263 273 277 277 272 277 282 278 277 284 293 292 285 275 269 267 265 264 258 258 231 211 197 190 190 196 203 200 204 193 147 139 144
222 233 249 264 270 287 292 289 289 287 287 289 290 304 302 292 286 291 287 281 272 263 237 246 240 218 196 193 192 204 209 178 182 170 151 136 133 139
219 231 243 257 276 273 282 287 288 299 298 311 317 303 303 306 300 296 285 280 266 235 208 227 191 164 166 164 207 206 183 152 152 140 133 128 131 137
215 227 206 231 261 277 281 291 301 310 325 308 305 307 306 301 303 293 285 288 265 270 180 185 155 134 148 205 116 136 139 136 130 127 127 131 138 144
218 229 246 190 211 261 284 287 303 319 307 303 318 306 312 308 307 309 301 305 289 229 191 160 146 195 94 115 117 130 128 122 119 118 128 139 156 151
218 243 261 124 236 284 288 293 309 310 294 325 313 314 317 318 316 312 304 291 252 248 260 158 108 157 99 111 113 116 110 118 123 132 142 157 122 141
242 353 1 329 297 289 277 309 303 295 336 317 317 318 312 308 311 311 318 307 266 336 150 131 105 107 104 102 123 121 120 120 129 137 145 164 160 149
224 251 246 260 286 272 275 287 315 314 343 319 322 318 315 318 327 326 317 318 24 72 82 103 110 108 100 105 116 120 124 128 136 138 144 148 138 133
182 223 254 202 264 277 298 306 310 317 339 323 332 327 323 328 332 326 327 324 84 94 90 79 89 104 115 127 123 128 118 127 134 139 143 143 147 154
158 219 261 296 272 289 308 308 314 329 349 324 334 333 324 332 331 330 340 2 71 100 100 103 111 103 95 64 58 124 130 133 137 146 145 144 144 153
192 229 252 247 284 301 300 306 314 337 343 317 340 338 328 335 340 340 342 4 69 109 129 125 120 121 125 122 109 68 137 140 139 137 140 139 132 145
224 194 225 251 264 284 303 310 332 336 323 319 340 342 335 335 342 340 342 337 57 111 123 131 145 146 139 138 126 96 136 134 144 131 121 61 76 84
177 174 214 227 254 270 305 306 308 312 318 313 350 343 339 337 341 341 335 340 15 70 135 141 153 117 125 122 113 119 100 72 131 127 126 113 113 115
166 198 209 215 260 273 287 293 295 317 328 331 344 343 341 334 335 337 335 330 316 122 75 104 109 125 132 135 133 132 124 83 80 76 55 62 150 163
189 193 175 215 254 274 285 288 299 325 349 335 336 328 347 334 324 325 322 320 321 175 121 101 113 117 130 135 132 129 124 123 135 115 59 21 57 40